SCP
6 3 4 3 2 5 5 4 2 1 1 1 1 1 2 1 0 1 1 0 0 0 0 0 0 0 0 0 0 -0 -0 -0 -0 0 0 0 0 0
4 4 3 3 2 5 5 3 2 1 1 1 1 2 2 1 0 0 0 0 0 0 0 0 0 0 0 -0 -0 0 0 -0 0 0 0 0 0 0
4 3 4 3 3 4 3 2 1 1 1 1 2 2 1 1 1 0 0 0 0 0 0 0 0 0 -0 0 0 0 0 0 0 0 0 0 -0 0
3 4 4 3 3 4 4 2 1 1 1 1 1 1 0 0 0 0 0 0 0 0 0 0 0 0 0 0 0 0 0 0 0 0 -0 -0 -0 -0
3 3 3 3 3 3 3 1 1 1 1 1 2 1 0 0 0 0 0 0 0 0 0 0 -0 0 0 0 0 0 0 0 0 0 -0 -0 -0 -0
3 3 4 3 3 3 2 1 1 1 1 1 1 0 0 0 0 0 0 0 0 0 0 0 0 0 0 -0 -0 -0 -0 0 0 0 0 0 0 0
5 5 4 2 2 2 1 1 1 1 1 1 0 0 0 0 0 0 0 0 0 0 0 0 0 0 0 0 -0 -0 -0 0 0 0 0 0 0 0
4 3 2 0 0 0 0 0 1 1 1 1 0 0 0 0 0 0 0 0 0 0 0 0 0 0 0 0 -0 -0 0 0 0 0 0 0 0 0
4 4 2 1 0 0 0 0 0 0 0 0 0 0 0 0 0 0 0 0 0 0 0 0 0 0 0 0 -0 0 0 -0 -0 0 0 0 0 0
3 3 2 1 1 0 0 0 0 0 0 0 0 0 0 0 0 0 0 0 0 0 0 0 0 0 0 0 0 0 -0 -0 -0 -0 0 0 -0 -0
2 1 1 1 0 0 0 0 0 0 0 0 0 0 0 0 0 0 0 0 0 0 0 0 0 0 0 0 0 0 0 0 0 -0 0 -0 -0 0
1 0 0 0 0 0 1 0 0 0 0 0 0 0 0 0 0 0 0 0 0 0 0 0 0 0 0 0 0 0 0 0 0 -0 -0 0 0 0
1 1 0 0 0 0 0 0 0 0 0 0 0 0 0 0 0 0 -0 0 0 0 0 0 0 0 0 0 0 0 0 0 0 0 0 0 0 0
0 0 0 0 0 0 0 0 0 0 0 0 0 0 0 0 0 0 0 0 0 0 0 0 0 0 0 0 0 0 0 0 0 0 0 0 0 0
0 0 0 0 0 0 0 0 0 0 0 0 0 0 0 0 0 0 0 0 0 0 0 0 0 0 0 0 0 0 0 0 0 0 0 0 0 0
0 0 0 0 0 0 0 0 0 0 0 0 0 0 0 0 0 0 0 0 0 0 0 0 0 0 0 0 0 0 0 0 0 0 0 0 0 0
0 0 0 0 0 0 0 0 0 0 0 0 0 0 0 0 0 0 0 0 0 0 0 0 0 0 0 0 0 0 0 0 0 0 0 0 0 0
0 0 0 0 0 0 0 0 -0 -0 -0 0 0 0 0 0 0 0 0 0 0 0 0 0 0 0 0 0 0 0 0 0 0 0 0 0 0 0
0 0 0 0 0 0 0 0 0 0 0 0 0 0 0 0 0 0 0 0 0 0 0 0 0 0 0 0 0 0 0 0 0 0 0 0 0 0
0 0 0 0 0 0 0 0 0 0 0 0 0 0 0 0 0 0 0 0 0 0 0 0 0 0 0 0 0 0 0 0 0 0 0 0 0 0
0 0 0 0 0 0 0 0 0 0 0 0 0 0 0 0 0 0 0 0 0 0 0 0 0 0 0 0 0 0 0 0 0 -0 -0 0 0 0
0 0 0 0 0 0 0 0 0 0 0 0 0 0 0 0 0 0 0 0 0 0 0 0 0 0 0 0 0 0 0 0 0 0 0 0 0 0
0 0 0 0 0 0 0 0 0 0 0 0 0 0 0 0 -0 0 0 -0 0 0 -0 0 0 0 0 0 0 0 0 0 0 0 0 0 0 0
Wind_Speed_500mb
59 49 49 46 39 43 37 38 34 35 36 27 28 32 28 37 44 44 33 34 32 31 29 33 37 35 34 34 33 35 38 42 37 38 35 32 36 36
49 43 41 41 32 41 44 42 38 31 32 24 26 38 34 31 30 25 27 28 30 26 23 23 26 29 28 30 33 34 34 35 34 36 31 32 30 34
48 40 43 36 36 41 37 32 32 37 38 18 25 27 24 28 27 24 19 22 16 18 17 15 25 25 22 23 26 28 29 29 28 30 29 34 34 33
50 47 46 34 34 41 34 39 43 34 25 19 26 23 22 24 22 22 21 16 19 13 17 16 20 24 24 25 24 24 24 24 24 24 28 32 32 28
47 41 43 39 38 35 42 40 35 26 21 19 23 21 22 23 23 17 18 21 14 13 15 16 18 21 22 22 22 22 21 23 24 27 30 29 30 25
49 42 43 38 37 37 37 34 26 21 30 30 29 23 25 22 19 10 13 18 19 16 19 16 17 19 20 21 21 20 19 21 21 21 26 28 28 28
51 46 43 33 35 39 32 29 28 28 23 25 25 25 22 23 16 11 15 23 22 14 18 18 18 19 20 20 23 21 17 19 19 22 23 27 27 28
49 44 36 42 45 42 33 29 31 35 37 32 28 25 26 27 18 15 19 22 19 25 23 19 17 21 21 22 22 16 21 23 18 25 23 22 28 32
48 48 45 44 46 41 40 38 36 34 31 28 24 27 19 21 21 24 21 20 15 15 23 21 22 23 24 24 23 20 25 23 16 21 19 22 27 33
49 48 44 39 36 38 39 38 41 36 29 29 24 25 21 20 21 27 25 25 14 10 16 15 22 24 27 26 27 24 29 25 21 21 21 22 28 32
45 43 38 38 34 28 29 34 38 35 31 27 20 19 20 26 26 30 27 23 14 14 19 18 17 21 22 26 31 31 35 30 26 23 27 24 23 29
33 29 28 30 27 26 36 33 31 36 30 25 21 20 16 18 23 23 24 20 13 12 15 24 15 25 18 27 35 35 37 38 33 31 31 30 27 31
38 35 38 38 36 31 32 41 35 32 28 22 24 21 18 18 21 24 25 19 14 16 13 19 19 12 13 13 23 33 34 34 38 36 34 33 36 40
33 31 27 24 39 34 33 37 30 34 32 24 20 15 13 12 18 21 23 24 21 12 13 11 24 23 15 21 16 18 28 35 37 39 37 36 36 39
32 28 20 16 24 28 26 29 25 31 30 25 23 21 19 14 11 15 16 21 26 17 19 14 19 18 30 29 24 21 19 16 26 32 34 33 34 36
35 28 18 18 21 23 27 26 27 29 23 20 23 22 20 15 15 14 15 15 15 9 14 15 10 18 13 22 23 25 20 18 18 21 26 32 34 40
34 27 30 28 22 28 28 28 24 23 21 17 19 19 15 16 12 13 8 10 12 13 16 13 11 16 16 15 18 22 25 30 33 35 31 36 40 42
30 36 33 27 26 28 26 23 18 15 16 18 14 12 18 17 17 14 13 9 10 14 10 14 14 12 13 14 14 15 17 25 23 21 27 32 34 34
36 33 34 34 30 27 22 24 23 17 15 14 14 14 16 16 15 13 16 15 17 17 17 13 16 15 13 12 12 7 11 13 19 21 29 35 38 36
37 34 34 33 35 28 27 21 20 19 15 16 18 16 12 15 12 12 11 9 12 12 11 15 20 17 16 15 14 13 16 20 20 23 28 21 23 25
38 33 32 35 32 30 26 22 19 17 16 20 15 14 15 16 16 11 12 17 13 11 10 11 14 16 18 20 18 10 18 21 22 24 36 28 24 22
41 38 34 31 29 26 20 16 14 16 21 19 19 17 11 7 10 9 3 5 6 12 13 4 4 14 19 19 17 19 13 7 10 17 26 31 28 20
34 33 32 33 29 22 19 17 16 21 19 14 14 15 14 7 2 6 9 5 5 7 14 14 5 8 13 13 13 6 8 16 22 16 9 12 18 19
Wind_Direction_500mb
249 237 239 248 240 250 249 244 244 273 270 272 270 246 237 245 261 279 273 275 283 273 262 243 240 238 235 239 235 227 232 233 238 243 240 237 233 223
237 236 239 249 228 242 246 249 257 260 260 267 282 243 250 252 272 289 284 276 268 266 247 238 231 222 228 231 227 228 228 236 240 243 238 231 230 222
229 233 241 251 225 238 247 239 248 239 255 262 256 246 251 263 268 276 281 270 266 245 233 226 209 216 222 224 220 225 231 239 240 239 222 222 227 225
226 228 237 236 228 228 223 237 234 246 237 253 239 249 271 277 275 262 259 259 260 229 210 214 216 220 220 220 226 229 234 232 228 220 218 227 220 216
231 230 228 228 233 232 236 239 243 228 219 236 248 260 280 286 281 254 254 241 240 214 201 204 210 214 219 224 226 220 220 214 213 227 226 219 213 224
233 229 222 227 235 240 233 232 210 220 226 236 254 261 268 284 266 241 213 202 207 209 206 202 214 215 217 214 209 208 203 207 229 222 216 212 214 221
221 225 224 229 230 234 233 213 205 219 223 230 242 250 260 280 254 194 197 202 202 190 209 198 210 213 210 208 195 194 203 197 202 201 210 216 220 233
225 216 214 221 222 227 220 210 217 217 224 234 236 240 253 261 220 191 196 194 202 205 207 202 211 212 212 202 195 189 187 182 198 215 226 225 229 228
210 215 217 219 220 224 215 219 225 229 243 236 226 236 242 248 214 189 192 206 222 235 213 204 214 213 210 203 202 207 206 208 227 220 225 234 234 230
216 225 222 213 218 221 222 227 228 234 242 236 239 236 235 237 215 204 204 208 214 204 192 222 212 212 215 211 204 210 206 223 226 225 231 235 233 234
214 226 213 207 210 220 232 221 221 233 236 230 237 237 230 220 218 207 203 198 181 195 220 238 220 224 223 219 208 218 223 227 228 227 242 246 251 243
192 191 190 200 216 214 210 223 217 220 226 222 221 216 220 206 203 204 197 189 179 195 230 222 235 217 215 230 227 220 222 229 238 237 246 249 259 263
184 195 202 204 211 225 226 226 226 220 219 214 205 203 207 201 200 189 181 178 199 240 250 233 231 244 190 254 241 231 237 239 242 243 245 253 255 259
189 214 209 214 222 226 224 222 221 207 200 192 198 192 195 208 207 206 199 191 196 240 209 243 217 225 230 236 251 253 237 245 243 247 252 259 261 260
188 198 201 236 214 216 217 213 205 194 197 190 191 185 188 204 199 212 216 216 214 232 251 253 246 235 223 242 248 255 246 253 254 250 258 265 266 268
182 191 207 193 182 189 187 177 182 183 181 183 193 195 197 191 191 220 226 222 220 221 264 276 254 235 251 241 246 251 253 227 246 247 258 257 267 270
182 178 169 163 163 168 172 174 181 191 193 195 195 193 201 192 206 213 213 202 217 243 259 287 290 267 266 266 260 257 251 256 263 265 265 280 279 277
181 177 172 169 163 164 171 170 159 151 173 187 204 222 212 207 212 232 234 243 232 254 269 249 268 289 296 300 293 284 270 274 281 272 276 280 293 302
166 165 165 158 155 157 159 156 158 173 187 209 193 182 172 183 205 220 220 235 243 252 253 257 261 267 276 282 308 292 284 316 295 286 292 300 300 291
163 164 163 161 161 161 160 162 168 173 175 172 159 158 175 204 213 223 217 229 250 247 269 291 279 280 267 273 299 304 290 294 311 296 301 291 312 317
155 154 161 161 153 154 160 177 183 174 184 181 183 187 198 215 218 231 239 266 258 268 265 283 317 313 284 279 300 338 299 273 308 284 279 298 320 314
147 150 148 165 170 166 174 194 205 207 175 172 180 196 178 195 222 220 227 272 321 297 298 341 297 292 306 297 293 295 290 279 279 289 295 306 318 313
157 146 146 145 146 148 148 142 151 157 164 178 184 177 176 194 159 118 95 81 262 293 286 313 356 268 280 26 118 184 253 292 304 309 326 316 312 318
Wind_Speed_850mb
59 49 49 46 39 43 37 38 34 35 36 27 28 32 28 37 44 44 33 34 32 31 29 33 37 35 34 34 33 35 38 42 37 38 35 32 36 36
49 43 41 41 32 41 44 42 38 31 32 24 26 38 34 31 30 25 27 28 30 26 23 23 26 29 28 30 33 34 34 35 34 36 31 32 30 34
48 40 43 36 36 41 37 32 32 37 38 18 25 27 24 28 27 24 19 22 16 18 17 15 25 25 22 23 26 28 29 29 28 30 29 34 34 33
50 47 46 34 34 41 34 39 43 34 25 19 26 23 22 24 22 22 21 16 19 13 17 16 20 24 24 25 24 24 24 24 24 24 28 32 32 28
47 41 43 39 38 35 42 40 35 26 21 19 23 21 22 23 23 17 18 21 14 13 15 16 18 21 22 22 22 22 21 23 24 27 30 29 30 25
49 42 43 38 37 37 37 34 26 21 30 30 29 23 25 22 19 10 13 18 19 16 19 16 17 19 20 21 21 20 19 21 21 21 26 28 28 28
51 46 43 33 35 39 32 29 28 28 23 25 25 25 22 23 16 11 15 23 22 14 18 18 18 19 20 20 23 21 17 19 19 22 23 27 27 28
49 44 36 42 45 42 33 29 31 35 37 32 28 25 26 27 18 15 19 22 19 25 23 19 17 21 21 22 22 16 21 23 18 25 23 22 28 32
48 48 45 44 46 41 40 38 36 34 31 28 24 27 19 21 21 24 21 20 15 15 23 21 22 23 24 24 23 20 25 23 16 21 19 22 27 33
49 48 44 39 36 38 39 38 41 36 29 29 24 25 21 20 21 27 25 25 14 10 16 15 22 24 27 26 27 24 29 25 21 21 21 22 28 32
45 43 38 38 34 28 29 34 38 35 31 27 20 19 20 26 26 30 27 23 14 14 19 18 17 21 22 26 31 31 35 30 26 23 27 24 23 29
33 29 28 30 27 26 36 33 31 36 30 25 21 20 16 18 23 23 24 20 13 12 15 24 15 25 18 27 35 35 37 38 33 31 31 30 27 31
38 35 38 38 36 31 32 41 35 32 28 22 24 21 18 18 21 24 25 19 14 16 13 19 19 12 13 13 23 33 34 34 38 36 34 33 36 40
33 31 27 24 39 34 33 37 30 34 32 24 20 15 13 12 18 21 23 24 21 12 13 11 24 23 15 21 16 18 28 35 37 39 37 36 36 39
32 28 20 16 24 28 26 29 25 31 30 25 23 21 19 14 11 15 16 21 26 17 19 14 19 18 30 29 24 21 19 16 26 32 34 33 34 36
35 28 18 18 21 23 27 26 27 29 23 20 23 22 20 15 15 14 15 15 15 9 14 15 10 18 13 22 23 25 20 18 18 21 26 32 34 40
34 27 30 28 22 28 28 28 24 23 21 17 19 19 15 16 12 13 8 10 12 13 16 13 11 16 16 15 18 22 25 30 33 35 31 36 40 42
30 36 33 27 26 28 26 23 18 15 16 18 14 12 18 17 17 14 13 9 10 14 10 14 14 12 13 14 14 15 17 25 23 21 27 32 34 34
36 33 34 34 30 27 22 24 23 17 15 14 14 14 16 16 15 13 16 15 17 17 17 13 16 15 13 12 12 7 11 13 19 21 29 35 38 36
37 34 34 33 35 28 27 21 20 19 15 16 18 16 12 15 12 12 11 9 12 12 11 15 20 17 16 15 14 13 16 20 20 23 28 21 23 25
38 33 32 35 32 30 26 22 19 17 16 20 15 14 15 16 16 11 12 17 13 11 10 11 14 16 18 20 18 10 18 21 22 24 36 28 24 22
41 38 34 31 29 26 20 16 14 16 21 19 19 17 11 7 10 9 3 5 6 12 13 4 4 14 19 19 17 19 13 7 10 17 26 31 28 20
34 33 32 33 29 22 19 17 16 21 19 14 14 15 14 7 2 6 9 5 5 7 14 14 5 8 13 13 13 6 8 16 22 16 9 12 18 19
Wind_Direction_850mb
249 237 239 248 240 250 249 244 244 273 270 272 270 246 237 245 261 279 273 275 283 273 262 243 240 238 235 239 235 227 232 233 238 243 240 237 233 223
237 236 239 249 228 242 246 249 257 260 260 267 282 243 250 252 272 289 284 276 268 266 247 238 231 222 228 231 227 228 228 236 240 243 238 231 230 222
229 233 241 251 225 238 247 239 248 239 255 262 256 246 251 263 268 276 281 270 266 245 233 226 209 216 222 224 220 225 231 239 240 239 222 222 227 225
226 228 237 236 228 228 223 237 234 246 237 253 239 249 271 277 275 262 259 259 260 229 210 214 216 220 220 220 226 229 234 232 228 220 218 227 220 216
231 230 228 228 233 232 236 239 243 228 219 236 248 260 280 286 281 254 254 241 240 214 201 204 210 214 219 224 226 220 220 214 213 227 226 219 213 224
233 229 222 227 235 240 233 232 210 220 226 236 254 261 268 284 266 241 213 202 207 209 206 202 214 215 217 214 209 208 203 207 229 222 216 212 214 221
221 225 224 229 230 234 233 213 205 219 223 230 242 250 260 280 254 194 197 202 202 190 209 198 210 213 210 208 195 194 203 197 202 201 210 216 220 233
225 216 214 221 222 227 220 210 217 217 224 234 236 240 253 261 220 191 196 194 202 205 207 202 211 212 212 202 195 189 187 182 198 215 226 225 229 228
210 215 217 219 220 224 215 219 225 229 243 236 226 236 242 248 214 189 192 206 222 235 213 204 214 213 210 203 202 207 206 208 227 220 225 234 234 230
216 225 222 213 218 221 222 227 228 234 242 236 239 236 235 237 215 204 204 208 214 204 192 222 212 212 215 211 204 210 206 223 226 225 231 235 233 234
214 226 213 207 210 220 232 221 221 233 236 230 237 237 230 220 218 207 203 198 181 195 220 238 220 224 223 219 208 218 223 227 228 227 242 246 251 243
192 191 190 200 216 214 210 223 217 220 226 222 221 216 220 206 203 204 197 189 179 195 230 222 235 217 215 230 227 220 222 229 238 237 246 249 259 263
184 195 202 204 211 225 226 226 226 220 219 214 205 203 207 201 200 189 181 178 199 240 250 233 231 244 190 254 241 231 237 239 242 243 245 253 255 259
189 214 209 214 222 226 224 222 221 207 200 192 198 192 195 208 207 206 199 191 196 240 209 243 217 225 230 236 251 253 237 245 243 247 252 259 261 260
188 198 201 236 214 216 217 213 205 194 197 190 191 185 188 204 199 212 216 216 214 232 251 253 246 235 223 242 248 255 246 253 254 250 258 265 266 268
182 191 207 193 182 189 187 177 182 183 181 183 193 195 197 191 191 220 226 222 220 221 264 276 254 235 251 241 246 251 253 227 246 247 258 257 267 270
182 178 169 163 163 168 172 174 181 191 193 195 195 193 201 192 206 213 213 202 217 243 259 287 290 267 266 266 260 257 251 256 263 265 265 280 279 277
181 177 172 169 163 164 171 170 159 151 173 187 204 222 212 207 212 232 234 243 232 254 269 249 268 289 296 300 293 284 270 274 281 272 276 280 293 302
166 165 165 158 155 157 159 156 158 173 187 209 193 182 172 183 205 220 220 235 243 252 253 257 261 267 276 282 308 292 284 316 295 286 292 300 300 291
163 164 163 161 161 161 160 162 168 173 175 172 159 158 175 204 213 223 217 229 250 247 269 291 279 280 267 273 299 304 290 294 311 296 301 291 312 317
155 154 161 161 153 154 160 177 183 174 184 181 183 187 198 215 218 231 239 266 258 268 265 283 317 313 284 279 300 338 299 273 308 284 279 298 320 314
147 150 148 165 170 166 174 194 205 207 175 172 180 196 178 195 222 220 227 272 321 297 298 341 297 292 306 297 293 295 290 279 279 289 295 306 318 313
157 146 146 145 146 148 148 142 151 157 164 178 184 177 176 194 159 118 95 81 262 293 286 313 356 268 280 26 118 184 253 292 304 309 326 316 312 318